{"data":{"norad_id":66126,"intl_designator":"2025-237N","name":"STARLINK-35658","alt_names":[],"object_type":"PAYLOAD","status":"ACTIVE","operator":null,"country":"US","launch_date":"2025-10-22","launch_site_code":"AFWTR","launch_vehicle":null,"mission":null,"orbit_class":"UNKNOWN","rcs_meters":null,"size_class":null,"mass_kg":null,"dimensions":null,"purposes":["comms"],"wikipedia_slug":null,"has_3d_model":false,"image_url":null,"decayed_at":null,"tle_current":{"epoch":"2026-09-20T13:28:55.849728Z","epoch_age_seconds":95111,"freshness":"FRESH","line1":"1 66126U 25237N   26263.56175752  .00029871  00000+0  89128-3 0  9994","line2":"2 66126  53.1572 211.1065 0000770 237.2837 122.8091 15.34414779 52485","mean_motion":15.34414779,"eccentricity":7.7e-5,"inclination_deg":53.1572,"raan_deg":211.1065,"arg_perigee_deg":237.2837,"mean_anomaly_deg":122.8091,"bstar":0.00089128,"rev_number":5248,"period_min":93.846854169279,"perigee_km":462.13257294095,"apogee_km":463.18605557334,"semimajor_km":6840.7963142571,"source":"CELESTRAK","updated_at":"2026-09-21T09:00:35.808811Z"}}}